Location: Fours
(44.3167°N, 6.7000°E)
Time: 04:16:22
(UTC+00:00)

NOSS 3-2 (A) - Pass Details

Date: 30 November 2020
Orbit: 789 x 1419 km, 63.4° (Epoch: 22 January)

Event Time Altitude Azimuth Distance (km) Brightness Sun altitude
Rises 17:27:48 0° 189° (S) 3,305 6.6 -16.0°
Reaches altitude 10° 17:30:16 10° 181° (S) 2,417 5.8 -16.4°
Maximum altitude 17:35:19 37° 115° (ESE) 1,335 3.8 -17.3°
Enters shadow 17:37:25 29° 75° (ENE) 1,622 4.1 -17.7°
